Appleton, WI

12:59 AM CDT on October 23, 2019 (GMT -0500)
Outagamie County Regional

Weather History for KATW - September, 2019

Change the Weather History Date:

Saturday, September 21, 2019

  Actual Average Record
Temperature  
Mean Temperature 70 °F -  
Max Temperature 75 °F 65 °F 84 °F (2005)
Min Temperature 64 °F 47 °F 29 °F (1974)
Cooling Degree Days 4    
Growing Degree Days 20 (Base 50)    
Moisture  
Dew Point 66 °F    
Average Humidity 91    
Maximum Humidity 100    
Minimum Humidity 69    
Precipitation  
Precipitation 0.00 in - - ()
Sea Level Pressure  
Sea Level Pressure 29.98 in    
Wind  
Wind Speed 8 mph ()    
Max Wind Speed 17 mph    
Max Gust Speed 25 mph    
Visibility 8.2 miles    
Events      
Averages and records for this station are not official NWS values.
T = Trace of Precipitation, MM = Missing Value Source: Averaged Metar Reports

Daily Weather History Graph

Daily Weather History Graph

Search for Another Location

Airport or City:

Astronomy

Sep. 21, 2019 Rise Set
Actual Time 6:39 AM CDT 6:53 PM CDT
Civil Twilight 6:10 AM CDT 7:22 PM CDT
Nautical Twilight 5:36 AM CDT 7:56 PM CDT
Astronomical Twilight 5:01 AM CDT 8:31 PM CDT
Moon 11:16 PM CDT (9/21) 2:00 PM CDT (9/21)
Length of Visible Light 13h 11m
Length of Day
12h 13m
Waning Gibbous, 54% of the Moon is Illuminated
Sep 21
Waning Gibbous
Sep 21
Last Quarter
Sep 28
New
Oct 5
First Quarter
Oct 13
Full

Hourly Weather History & Observations

Time (CDT) Temp. Dew Point Humidity Pressure Visibility Wind Dir Wind Speed Gust Speed Precip Events Conditions
12:15 AM 66.2 °F 62.6 °F 88% 30.06 in 10.0 mi SE 6.9 mph - N/A   Clear
12:35 AM 66.2 °F 62.6 °F 88% 30.06 in 10.0 mi SE 8.1 mph - N/A   Clear
12:55 AM 66.2 °F 64.4 °F 94% 30.06 in 10.0 mi SE 5.8 mph - N/A   Clear
1:15 AM 64.4 °F 64.4 °F 100% 30.05 in 7.0 mi SE 5.8 mph - N/A   Clear
1:35 AM 64.4 °F 64.4 °F 100% 30.05 in 7.0 mi SE 4.6 mph - N/A   Clear
1:55 AM 64.4 °F 64.4 °F 100% 30.05 in 5.0 mi SE 4.6 mph - N/A   Clear
2:15 AM 64.4 °F 64.4 °F 100% 30.05 in 5.0 mi SE 4.6 mph - N/A   Clear
2:35 AM 64.4 °F 64.4 °F 100% 30.04 in 5.0 mi ESE 4.6 mph - N/A   Clear
2:55 AM 66.2 °F 64.4 °F 94% 30.04 in 5.0 mi SE 3.5 mph - N/A   Scattered Clouds
3:15 AM 64.4 °F 64.4 °F 100% 30.04 in 5.0 mi ESE 3.5 mph - N/A   Scattered Clouds
3:35 AM 66.2 °F 64.4 °F 94% 30.03 in 5.0 mi ESE 4.6 mph - N/A   Scattered Clouds
3:55 AM 64.4 °F 64.4 °F 100% 30.03 in 5.0 mi SE 3.5 mph - N/A   Clear
4:15 AM 64.4 °F 64.4 °F 100% 30.04 in 5.0 mi SE 3.5 mph - N/A   Clear
4:35 AM 64.4 °F 64.4 °F 100% 30.03 in 5.0 mi SSE 5.8 mph - N/A   Clear
4:55 AM 64.4 °F 64.4 °F 100% 30.03 in 7.0 mi SSE 5.8 mph - N/A   Clear
5:15 AM 66.2 °F 64.4 °F 94% 30.02 in 7.0 mi SSE 5.8 mph - N/A   Clear
5:20 AM 66.2 °F 66.2 °F 100% 30.02 in 10.0 mi SSE 6.9 mph - N/A   Scattered Clouds
5:45 AM 68.0 °F 66.2 °F 94% 30.02 in 10.0 mi SSE 6.9 mph - N/A   Scattered Clouds
6:45 AM 66.2 °F 66.2 °F 100% 30.00 in 7.0 mi SSE 5.8 mph - N/A   Scattered Clouds
7:45 AM 71.6 °F 68.0 °F 88% 29.99 in 10.0 mi South 9.2 mph - N/A   Mostly Cloudy
9:45 AM 75.2 °F 68.0 °F 78% 29.98 in 10.0 mi South 17.3 mph - N/A   Mostly Cloudy
10:45 AM 73.4 °F 64.4 °F 73% 29.97 in 10.0 mi SSW 17.3 mph - N/A   Mostly Cloudy
11:45 AM 73.4 °F 64.4 °F 73% 29.96 in 10.0 mi South 10.4 mph 19.6 mph N/A   Overcast
12:45 PM 75.2 °F 64.4 °F 69% 29.94 in 10.0 mi SSW 13.8 mph 25.3 mph N/A   Mostly Cloudy
1:45 PM 73.4 °F 64.4 °F 73% 29.94 in 10.0 mi South 15.0 mph 18.4 mph N/A   Overcast
2:45 PM 73.4 °F 66.2 °F 78% 29.92 in 10.0 mi SSW 13.8 mph 19.6 mph N/A   Overcast
3:45 PM 73.4 °F 66.2 °F 78% 29.91 in 10.0 mi SSW 11.5 mph 18.4 mph N/A   Overcast
4:30 PM 71.6 °F 68.0 °F 88% 29.90 in 3.0 mi SSW 15.0 mph - N/A   Overcast
4:45 PM 71.6 °F 69.8 °F 94% 29.90 in 7.0 mi SSW 15.0 mph - N/A   Overcast
5:45 PM 73.4 °F 69.8 °F 88% 29.90 in 10.0 mi SSW 15.0 mph - N/A   Overcast
6:45 PM 71.6 °F 68.0 °F 88% 29.90 in 10.0 mi SSW 13.8 mph - N/A   Overcast
7:45 PM 71.6 °F 68.0 °F 88% 29.90 in 10.0 mi SSW 12.7 mph - N/A   Scattered Clouds
8:45 PM 71.6 °F 69.8 °F 94% 29.89 in 10.0 mi SSW 12.7 mph - N/A   Mostly Cloudy
9:45 PM 71.6 °F 69.8 °F 94% 29.89 in 10.0 mi SSW 13.8 mph 21.9 mph N/A   Overcast
10:45 PM 71.6 °F 69.8 °F 94% 29.89 in 10.0 mi SSW 12.7 mph 19.6 mph N/A   Overcast
10:55 PM 71.6 °F 69.8 °F 94% 29.89 in 10.0 mi SSW 12.7 mph - N/A   Overcast
11:15 PM 71.6 °F 69.8 °F 94% 29.89 in 10.0 mi SSW 11.5 mph 17.3 mph N/A   Overcast
11:35 PM 71.6 °F 69.8 °F 94% 29.88 in 10.0 mi SSW 15.0 mph - N/A   Overcast
11:55 PM 71.6 °F 69.8 °F 94% 29.88 in 10.0 mi SSW 15.0 mph - N/A   Overcast